Regional Weather Roundup
Issued by NWS

Home | Current Version | Previous Version | Text Only | Print | Product List | Glossary On
Versions: 1 2 3 4 5 6 7 8 9 10 11 12 13 14 15 16 17 18 19 20 21 22 23 24 25 26 27 28 29 30 31 32 33 34 35 36 37 38 39 40 41 42 43 44 45 46 47 48 49 50
000
ASUS45 KTFX 300019
RWRMT
MONTANA HOURLY WEATHER ROUNDUP
NATIONAL WEATHER SERVICE GREAT FALLS MT
619 PM MDT TUE JUL 29 2014

NOTE: "FAIR" INDICATES FEW OR NO CLOUDS BELOW 12000 FEET WITH NO
SIGNIFICANT WEATHER AND/OR OBSTRUCTIONS TO VISIBILITY.

* THESE STATIONS ARE NOT UNDER NWS QUALITY CONTROL. THEY DO NOT
   REPORT WEATHER SUCH AS PRECIPITATION OR FOG.

MTZ001>007-043-300100-
WEST OF THE DIVIDE
CITY           SKY/WX    TMP DP  RH WIND       PRES   REMARKS
KALISPELL      PTCLDY    93  39  15 VRB3      30.05F
MISSOULA       PTCLDY    95  32  11 N13       30.06F
BUTTE          MOCLDY    81  39  22 NE10G17   30.25F
MULLAN PASS    MOCLDY    81  39  22 CALM      30.29F
* LINCOLN      N/A       87  42  21 E6G13      N/A
* LOOKOUT PASS N/A       87  40  19 SW4        N/A
* POLSON       N/A       90  41  18 NW3        N/A
* RONAN APT    PTCLDY    90  48  24 N/A        N/A
* SEELEY LAKE  N/A       92  30  11 S6G12      N/A
* THOMP F APT  PTCLDY    72  47  41 NE4G17     N/A
* YAAK HILL    N/A      102  42  13 W3         N/A
$$

MTZ008-052>055-300100-
SOUTHWEST MONTANA
CITY           SKY/WX    TMP DP  RH WIND       PRES   REMARKS
BOZEMAN        MOCLDY    81  48  32 S12       30.16F
DILLON         CLOUDY    79  45  30 E14       30.21F
W YELLOWSTONE  CLOUDY    63  48  58 E18G31    30.36R
* THREE FORKS  MOCLDY    84  54  36 E16G23     N/A
* BOULDER HILL N/A       79  41  26 S8         N/A
* MONIDA PASS  N/A       63  48  58 N13        N/A
* RAYNOLDS PAS N/A       70  60  71 W5G11      N/A
* WHITEHALL    N/A       84  44  25 NE5G17     N/A
* WISE RIVER   N/A       77  41  28 SE5G22     N/A
$$

MTZ009>010-012-014-046-048-049-054-300100-
EAST SLOPES AND CENTRAL MONTANA
CITY           SKY/WX    TMP DP  RH WIND       PRES   REMARKS
CUT BANK       PTCLDY    88  41  19 SE5       30.16F
GREAT FALLS    PTCLDY    91  41  17 E13G18    30.13F
HELENA         CLOUDY    86  43  22 E10       30.14R
MALMSTROM AFB  PTCLDY    91  37  15 E12G17    30.13F
* CONRAD       PTCLDY    84  54  36 N5         N/A
* DEARBORN     N/A       91  33  13 N9G17      N/A
* EAST GLACIER N/A       80  40  24 S7G12      N/A
* MONARCH      N/A       78  40  26 S14G19     N/A
* ROGERS PASS  N/A       77  48  36 W1         N/A
* SAINT MARY   N/A       89  40  18 SE6G11     N/A
* SWEET GRASS  N/A       89  39  17 E7         N/A
* WHITE SULPH  N/A       75  40  28 NE7G23     N/A
$$

MTZ011-013-016-021-035-040-045-047-050-051-300100-
NORTH CENTRAL MONTANA
CITY           SKY/WX    TMP DP  RH WIND       PRES   REMARKS
HAVRE          CLEAR     95  41  15 E15       30.09F
LEWISTOWN      PTCLDY    88  39  18 E14       30.20S
* FORT BENTON  CLEAR     91  37  15 E8        30.10F
* CHESTER      N/A       91  37  15 E3G11      N/A
* DENTON       N/A       90  45  21 E12G18     N/A
* GEYSER       N/A       88  46  23 E9G14      N/A
* JUDITH GAP   N/A       83  48  30 E13        N/A
* LOMA         N/A       92  40  16 SE1G8      N/A
$$

MTZ017>020-022>027-061-062-300100-
NORTHEAST MONTANA
CITY           SKY/WX    TMP DP  RH WIND       PRES   REMARKS
GLASGOW        CLEAR     90  43  19 NE14G21   30.14S
GLENDIVE       CLEAR     84  43  24 N16       30.16S
JORDAN         CLEAR     90  37  15 N14       30.14F
SIDNEY         CLEAR     82  52  35 NE12      30.16S
WOLF POINT     CLEAR     90  45  21 NE12G21   30.14F
* BEAVER HILL  N/A       82  44  26 N13        N/A
* CIRCLE       N/A       87  48  26 NE6G11     N/A
* LINDSAY DVD  N/A       82  44  26 N14        N/A
$$

MTZ028>042-056>058-300100-
SOUTHCENTRAL AND SOUTHEAST MONTANA
CITY           SKY/WX    TMP DP  RH WIND       PRES   REMARKS
BAKER          MOCLDY    84  46  26 NE7       30.17F
BILLINGS       PTCLDY    88  46  23 E15       30.16S
LIVINGSTON     MOCLDY    86  45  24 E17       30.18F
MILES CITY     FAIR      88  43  21 E7        30.14F
* LAUREL APT   MOCLDY    86  46  25 NE5        N/A
* ROUNDUP APT  CLEAR     90  37  15 E7         N/A
* ALZADA       N/A       82  47  29 NE5        N/A
* HYSHAM       N/A       87  45  23 NE8G13     N/A
* LAME DEER    N/A       81  39  22 E9G14      N/A
* REED POINT   N/A       86  50  29 E16G23     N/A
* ROSCOE HILL  N/A       78  45  31 E16G23     N/A
$$

REGIONAL REPORTS...DAKOTAS
CITY           SKY/WX    TMP DP  RH WIND       PRES   REMARKS
WILLISTON      FAIR      82  54  38 N13       30.15S
DICKINSON      FAIR      77  57  50 E10       30.13S
CROSBY         CLEAR     75  61  62 N9        30.17S
TIOGA          CLEAR     75  57  54 N7        30.19S
WATFORD CITY   CLEAR     81  54  39 N9        30.12F
BISMARCK       MOCLDY    79  55  44 E13       30.14S
GRAND FORKS    FAIR      75  54  48 N7        30.09F
FARGO          FAIR      75  54  48 NE7       30.09F
BUFFALO SD     CLEAR     82  48  31 SE6       30.11F
RAPID CITY     CLOUDY    72  55  55 SE3       30.21F
$$

REGIONAL REPORTS...WYOMING/IDAHO/WASHINGTON
CITY           SKY/WX    TMP DP  RH WIND       PRES   REMARKS
GILLETTE       CLOUDY    70  55  59 SW8       30.25F
SHERIDAN       CLOUDY    79  43  28 SE8       30.23S
YELLOWSTONE LA CLOUDY    54  50  86 NW3       30.45F
SALMON         CLOUDY    90  43  19 E9        30.08R
MULLAN PASS    MOCLDY    81  39  22 CALM      30.29S
SAND POINT     CLEAR     95  39  14 CALM      30.00F
SPOKANE        FAIR      99  37  12 W6        30.00F
$$

REGIONAL REPORTS...ALBERTA
CITY           SKY/WX    TMP DP  RH WIND       PRES   REMARKS
CALGARY        PTCLDY    86  48  27 SE10G17   30.13F
LETHBRIDGE     FAIR      88  54  31 E10       30.12F
MEDICINE HAT   FAIR      95  39  14 N6        30.08F
EDMONTON       PTCLDY    82  64  55 E10       30.07F HI  84
WATERTON GATE  N/A       75  57  54 SW2        N/A
CARDSTON       N/A       86  55  35 SE2        N/A
MILK RIVER     N/A       90  37  15 E9         N/A
$$

REGIONAL REPORTS...SASKATCHEWAN
CITY           SKY/WX    TMP DP  RH WIND       PRES   REMARKS
SWIFT CURRENT  CLEAR     82  50  33 E12       30.16F
MOOSE JAW      FAIR     N/A N/A N/A N7         N/A
REGINA         FAIR      79  55  44 N7        30.18F
VAL MARIE      N/A       82  52  35 NE10       N/A
ASSINIBOIA     N/A       79  54  42 NE7        N/A
CORONACH       N/A       79  50  36 N10        N/A

$$



USA.gov is the U.S. government's official web portal to all federal, state and local government web resources and services.